Weather reports worldwide

Advertisment
Shoreham Airport, United Kingdom (3876): temperature & dewpoint: 03.08.2020 21:00:00 - 09.08.2020 21:00:00 (BST)Shoreham Airport, United Kingdom (3876): wind speed: 03.08.2020 21:00:00 - 09.08.2020 21:00:00 (BST)Shoreham Airport, United Kingdom (3876): wind direction: 03.08.2020 21:00:00 - 09.08.2020 21:00:00 (BST)Shoreham Airport, United Kingdom (3876): reduced air pressure: 03.08.2020 21:00:00 - 09.08.2020 21:00:00 (BST)Shoreham Airport, United Kingdom (3876): visibility: 03.08.2020 21:00:00 - 09.08.2020 21:00:00 (BST)Shoreham Airport, United Kingdom (3876): precipitation: 03.08.2020 21:00:00 - 09.08.2020 21:00:00 (BST)
Date & Time tt [°C] td [°C] ff [km/h] ff [kn] dd ppp [hPa] vv [km] rr [mm]
09.08.2020 21:00:00 26,4 16,8 9 5 NW 1014,0 - 0,0
09.08.2020 20:00:00 28,7 16,9 15 8 N 1013,8 - 0,0
09.08.2020 19:00:00 31,0 18,0 16 9 NNE 1013,7 10 0,0
09.08.2020 18:00:00 30,4 18,1 5 3 SSW 1014,0 10 0,0
09.08.2020 17:00:00 30,7 17,1 11 6 SSE 1014,5 10 0,0
09.08.2020 16:00:00 33,0 17,3 9 5 ESE 1014,9 10 0,0
09.08.2020 15:00:00 32,9 18,1 15 8 ENE 1015,3 10 0,0
09.08.2020 14:00:00 30,0 17,8 13 7 NNE 1016,0 10 0,0
09.08.2020 13:00:00 30,1 18,1 21 11 N 1016,2 10 0,0
09.08.2020 12:00:00 28,1 17,8 22 12 N 1016,4 10 0,0
09.08.2020 11:00:00 26,2 17,6 21 11 N 1016,8 10 0,0
09.08.2020 10:00:00 23,4 17,0 29 16 N 1017,0 10 0,0
09.08.2020 09:00:00 21,4 16,5 28 15 N 1017,2 10 0,0
09.08.2020 08:00:00 19,4 15,8 31 17 N 1017,3 - 0,0
09.08.2020 07:00:00 18,3 15,5 29 16 N 1017,4 - 0,0
09.08.2020 06:00:00 18,5 15,4 29 16 N 1017,5 - 0,0
09.08.2020 05:00:00 18,7 15,6 29 16 N 1017,5 - 0,0
09.08.2020 04:00:00 19,5 15,8 29 16 N 1017,6 - 0,0
09.08.2020 03:00:00 20,7 16,2 26 14 N 1017,7 - 0,0
09.08.2020 02:00:00 21,6 16,0 26 14 N 1017,9 - 0,0
09.08.2020 01:00:00 22,3 15,0 26 14 N 1017,9 - 0,0
09.08.2020 00:00:00 22,8 14,9 21 11 N 1018,0 - 0,0
08.08.2020 23:00:00 24,1 15,6 11 6 N 1017,9 - 0,0
08.08.2020 22:00:00 23,5 17,0 9 5 N 1017,6 - 0,0
08.08.2020 21:00:00 23,8 16,8 5 3 SE 1017,6 - 0,0
08.08.2020 20:00:00 25,0 17,3 2 1 SW 1017,4 10 0,0
08.08.2020 19:00:00 25,8 17,6 4 2 SSE 1017,3 10 0,0
08.08.2020 18:00:00 29,2 14,9 5 3 SE 1017,2 10 0,0
08.08.2020 17:00:00 30,4 15,0 9 5 ESE 1017,5 10 0,0
08.08.2020 16:00:00 30,6 14,2 8 4 SE 1017,9 10 0,0
08.08.2020 15:00:00 28,4 15,1 8 4 ESE 1018,3 10 0,0
08.08.2020 14:00:00 29,6 13,5 8 4 SE 1018,4 10 0,0
08.08.2020 13:00:00 26,9 15,5 11 6 ESE 1018,7 10 0,0
08.08.2020 12:00:00 27,9 16,2 13 7 SSE 1018,6 10 0,0
08.08.2020 11:00:00 28,8 17,5 16 9 NNW 1018,3 10 0,0
08.08.2020 10:00:00 25,3 17,5 18 10 N 1018,4 10 0,0
08.08.2020 09:00:00 22,5 16,3 18 10 N 1018,1 10 0,0
08.08.2020 08:00:00 21,7 15,6 18 10 N 1017,8 - 0,0
08.08.2020 07:00:00 20,8 14,9 18 10 N 1018,0 - 0,0
08.08.2020 06:00:00 21,0 14,6 21 11 N 1017,8 - 0,0
08.08.2020 05:00:00 21,5 14,2 21 11 N 1017,3 - 0,0
08.08.2020 04:00:00 21,4 14,4 21 11 N 1017,5 - 0,0
08.08.2020 03:00:00 21,6 14,6 16 9 N 1017,3 - 0,0
08.08.2020 02:00:00 21,7 14,8 16 9 N 1017,6 - 0,0
08.08.2020 01:00:00 21,9 14,9 15 8 N 1017,6 - 0,0
08.08.2020 00:00:00 23,7 13,6 11 6 NNW 1018,3 - 0,0
07.08.2020 23:00:00 23,3 13,5 11 6 N 1017,8 - 0,0
07.08.2020 22:00:00 21,1 14,1 8 4 NNW 1017,4 - 0,0
07.08.2020 21:00:00 21,7 13,1 4 2 NNW 1016,8 - 0,0
07.08.2020 20:00:00 25,2 14,3 0 0 N 1016,5 10 0,0
07.08.2020 19:00:00 25,8 14,5 9 5 ESE 1016,4 10 0,0
07.08.2020 18:00:00 26,5 15,6 2 1 - 1016,9 10 0,0
07.08.2020 17:00:00 26,8 13,0 5 3 SE 1017,3 10 0,0
07.08.2020 16:00:00 26,5 14,3 11 6 ESE 1017,8 10 0,0
07.08.2020 15:00:00 27,2 12,6 11 6 ESE 1018,0 10 0,0
07.08.2020 14:00:00 26,3 13,5 13 7 ESE 1018,1 10 0,0
07.08.2020 13:00:00 25,2 15,7 13 7 SE 1018,2 10 0,0
07.08.2020 12:00:00 25,4 16,5 13 7 ESE 1018,1 10 0,0
07.08.2020 11:00:00 25,2 16,3 13 7 SE 1018,3 10 0,0
07.08.2020 10:00:00 26,0 17,1 5 3 NNE 1018,2 10 0,0
07.08.2020 09:00:00 21,8 16,2 11 6 N 1018,3 10 0,0
07.08.2020 08:00:00 18,7 15,5 18 10 N 1018,1 10 0,0
07.08.2020 07:00:00 16,3 14,2 21 11 N 1018,0 - 0,0
07.08.2020 06:00:00 15,2 13,8 22 12 N 1017,9 - 0,0
07.08.2020 05:00:00 15,4 13,9 18 10 N 1017,8 - 0,0
07.08.2020 04:00:00 15,5 13,7 16 9 N 1017,8 - 0,0
07.08.2020 03:00:00 15,7 13,9 15 8 N 1018,0 - 0,0
07.08.2020 02:00:00 16,0 14,1 13 7 N 1018,3 - 0,0
07.08.2020 01:00:00 15,3 13,9 8 4 N 1018,4 - 0,0
07.08.2020 00:00:00 15,3 13,7 5 3 NNE 1018,6 - 0,0
06.08.2020 23:00:00 16,0 14,0 2 1 SE 1018,5 - 0,0
06.08.2020 22:00:00 17,9 15,2 0 0 N 1018,3 - 0,0
06.08.2020 21:00:00 20,2 15,4 5 3 SSE 1017,9 - 0,0
06.08.2020 20:00:00 23,1 15,4 4 2 S 1017,6 10 0,0
06.08.2020 19:00:00 24,2 15,0 9 5 SSE 1017,4 10 0,0
06.08.2020 18:00:00 25,3 15,1 8 4 SSE 1017,6 10 0,0
06.08.2020 17:00:00 25,4 15,7 9 5 S 1017,7 10 0,0
06.08.2020 16:00:00 24,6 15,5 9 5 ESE 1018,1 10 0,0
06.08.2020 15:00:00 23,3 15,3 13 7 SE 1018,3 10 0,0
06.08.2020 14:00:00 23,4 16,3 13 7 SE 1018,4 10 0,0
06.08.2020 13:00:00 23,0 16,4 13 7 SE 1018,5 10 0,0
06.08.2020 12:00:00 22,8 17,1 15 8 SE 1018,6 10 0,0
06.08.2020 11:00:00 22,1 16,0 13 7 SE 1018,4 10 0,0
06.08.2020 10:00:00 21,6 17,2 11 6 SE 1018,3 10 0,0
06.08.2020 09:00:00 20,4 16,5 13 7 SE 1018,0 10 0,0
06.08.2020 08:00:00 19,0 16,9 13 7 SSE 1017,5 10 0,0
06.08.2020 07:00:00 18,7 17,2 11 6 S 1017,1 - 0,0
06.08.2020 06:00:00 18,1 17,1 13 7 SSW 1016,6 - 0,0
06.08.2020 05:00:00 18,4 16,8 13 7 S 1016,3 - 0,0
06.08.2020 04:00:00 18,3 16,7 15 8 S 1016,1 - 0,0
06.08.2020 03:00:00 18,4 16,7 15 8 S 1015,8 - 0,0
06.08.2020 02:00:00 18,4 16,8 16 9 SW 1015,7 - 0,0
06.08.2020 01:00:00 18,1 16,6 13 7 WSW 1015,7 - 0,0
06.08.2020 00:00:00 18,4 15,8 15 8 WSW 1015,7 - 0,0
05.08.2020 23:00:00 18,7 15,9 15 8 SW 1015,2 - 0,0
05.08.2020 22:00:00 19,0 15,7 16 9 SW 1015,0 - 0,0
05.08.2020 21:00:00 18,3 15,2 11 6 SSW 1014,5 - 0,0
05.08.2020 20:00:00 18,8 14,9 9 5 SSW 1014,3 10 0,0
05.08.2020 19:00:00 19,4 15,4 11 6 S 1014,3 10 0,0
05.08.2020 18:00:00 20,6 15,5 18 10 SSW 1014,2 10 0,0
05.08.2020 17:00:00 20,4 15,1 24 13 SSW 1014,2 10 0,0
05.08.2020 16:00:00 20,8 15,4 28 15 SW 1014,4 10 0,0
05.08.2020 15:00:00 20,7 15,5 26 14 SSW 1014,4 10 0,0
05.08.2020 14:00:00 20,3 15,2 29 16 SW 1014,3 10 0,0
05.08.2020 13:00:00 20,5 15,5 28 15 SSW 1014,3 10 0,0
05.08.2020 12:00:00 20,4 15,5 24 13 SSW 1014,4 10 0,0
05.08.2020 11:00:00 20,2 14,7 26 14 SSW 1014,6 10 0,0
05.08.2020 10:00:00 20,1 14,3 24 13 S 1014,5 10 0,0
05.08.2020 09:00:00 19,3 14,7 22 12 S 1014,4 10 0,0
05.08.2020 08:00:00 18,1 14,3 21 11 SSW 1014,4 10 0,0
05.08.2020 07:00:00 17,2 14,6 22 12 SSW 1013,9 - 0,0
05.08.2020 06:00:00 16,7 14,4 21 11 SSW 1013,9 - 0,0
05.08.2020 05:00:00 16,4 13,9 18 10 SW 1013,9 - 0,0
05.08.2020 04:00:00 16,4 14,0 21 11 SW 1014,0 - 0,0
05.08.2020 03:00:00 16,6 14,1 22 12 SW 1014,5 - 0,0
05.08.2020 02:00:00 16,3 13,6 22 12 SW 1014,7 - 0,0
05.08.2020 01:00:00 16,3 13,7 22 12 SW 1015,1 - 0,0
05.08.2020 00:00:00 16,2 13,4 26 14 SW 1015,1 - 0,0
04.08.2020 23:00:00 16,2 12,5 21 11 SW 1015,2 - 0,0
04.08.2020 22:00:00 16,3 11,9 22 12 SW 1015,8 - 0,0
04.08.2020 21:00:00 16,5 12,1 21 11 SW 1015,6 - 0,0
04.08.2020 20:00:00 17,0 12,5 26 14 SW 1015,6 10 0,0
04.08.2020 19:00:00 17,4 12,2 29 16 SW 1016,0 10 0,0
04.08.2020 18:00:00 18,5 12,5 29 16 SW 1016,2 10 0,0
04.08.2020 17:00:00 19,5 12,8 31 17 SW 1016,5 10 0,0
04.08.2020 16:00:00 18,3 9,1 31 17 SW 1016,9 10 0,0
04.08.2020 15:00:00 19,1 11,0 29 16 SW 1017,3 10 0,0
04.08.2020 14:00:00 19,8 10,7 29 16 SW 1017,6 10 0,0
04.08.2020 13:00:00 19,9 9,0 29 16 SW 1018,0 10 0,0
04.08.2020 12:00:00 19,4 9,0 28 15 SSW 1017,7 10 0,0
04.08.2020 11:00:00 19,0 10,4 22 12 SSW 1017,7 10 0,0
04.08.2020 10:00:00 18,7 10,3 16 9 SSW 1017,8 - 0,0
04.08.2020 09:00:00 17,7 14,2 11 6 S 1017,9 10 0,0
04.08.2020 08:00:00 14,8 11,0 9 5 N 1017,8 10 0,0
04.08.2020 07:00:00 11,4 9,7 9 5 N 1017,3 - 0,0
04.08.2020 06:00:00 9,7 8,2 11 6 N 1017,1 - 0,0
04.08.2020 05:00:00 9,7 8,1 9 5 N 1017,2 - 0,0
04.08.2020 04:00:00 10,7 8,4 9 5 N 1017,3 - 0,0
04.08.2020 03:00:00 10,4 7,9 9 5 N 1017,5 - 0,0
04.08.2020 02:00:00 11,6 7,9 5 3 N 1017,6 - 0,0
04.08.2020 01:00:00 12,5 8,0 9 5 N 1017,7 - 0,0
04.08.2020 00:00:00 13,9 7,6 11 6 N 1017,4 - 0,0
03.08.2020 23:00:00 14,4 7,5 11 6 N 1017,0 - 0,0
03.08.2020 22:00:00 15,6 7,1 13 7 N 1016,7 - 0,0
03.08.2020 21:00:00 17,0 7,2 15 8 NW 1016,1 - 0,0

tt = temperature
td = dewpoint
ff = wind speed
dd = wind direction
ppp = reduced air pressure
vv = visibility
rr = precipitation

Next stations